Data supplied by UK-AIR on 21/3/2024
All Data GMT hour ending 
Status: R =Ratified P=Provisional,P*=As supplied
,,Cambridge Roadside,,,,,,,,,,,,,,,,,,,,,,,
Date,time,"Nitric oxide",status,unit,"Nitrogen dioxide",status,unit,"Nitrogen oxides as nitrogen dioxide",status,unit
 
01-01-2023,01:00,11.07736,R,ugm-3,8.01160,R,ugm-3,24.99664,R,ugm-3
01-01-2023,02:00,9.80258,R,ugm-3,4.36698,R,ugm-3,19.39739,R,ugm-3
01-01-2023,03:00,10.05534,R,ugm-3,3.82944,R,ugm-3,19.24741,R,ugm-3
01-01-2023,04:00,8.34099,R,ugm-3,3.65846,R,ugm-3,16.44779,R,ugm-3
01-01-2023,05:00,8.47286,R,ugm-3,3.80621,R,ugm-3,16.79774,R,ugm-3
01-01-2023,06:00,7.41787,R,ugm-3,2.27425,R,ugm-3,13.64817,R,ugm-3
01-01-2023,07:00,9.82456,R,ugm-3,6.48299,R,ugm-3,21.54711,R,ugm-3
01-01-2023,08:00,8.27505,R,ugm-3,3.15964,R,ugm-3,15.84787,R,ugm-3
01-01-2023,09:00,7.87943,R,ugm-3,3.51628,R,ugm-3,15.59790,R,ugm-3
01-01-2023,10:00,8.93442,R,ugm-3,3.89839,R,ugm-3,17.59764,R,ugm-3
01-01-2023,11:00,8.70364,R,ugm-3,4.40223,R,ugm-3,17.74762,R,ugm-3
01-01-2023,12:00,9.00035,R,ugm-3,6.19697,R,ugm-3,19.99731,R,ugm-3
01-01-2023,13:00,9.85753,R,ugm-3,5.93251,R,ugm-3,21.04717,R,ugm-3
01-01-2023,14:00,11.53891,R,ugm-3,7.90381,R,ugm-3,25.59656,R,ugm-3
01-01-2023,15:00,11.24220,R,ugm-3,9.70858,R,ugm-3,26.94638,R,ugm-3
01-01-2023,16:00,12.42906,R,ugm-3,10.98834,R,ugm-3,30.04596,R,ugm-3
01-01-2023,17:00,10.91252,R,ugm-3,12.36380,R,ugm-3,29.09609,R,ugm-3
01-01-2023,18:00,15.06652,R,ugm-3,13.69338,R,ugm-3,36.79506,R,ugm-3
01-01-2023,19:00,12.26422,R,ugm-3,13.79075,R,ugm-3,32.59562,R,ugm-3
01-01-2023,20:00,12.09938,R,ugm-3,11.69382,R,ugm-3,30.24594,R,ugm-3
01-01-2023,21:00,11.60485,R,ugm-3,12.40209,R,ugm-3,30.19594,R,ugm-3
01-01-2023,22:00,10.97845,R,ugm-3,13.41254,R,ugm-3,30.24594,R,ugm-3
01-01-2023,23:00,11.76969,R,ugm-3,13.69913,R,ugm-3,31.74574,R,ugm-3
01-01-2023,24:00,10.05534,R,ugm-3,18.57746,R,ugm-3,33.99543,R,ugm-3
02-01-2023,01:00,9.60663,R,ugm-3,22.55155,R,ugm-3,37.28151,R,ugm-3
02-01-2023,02:00,7.79988,R,ugm-3,7.14880,R,ugm-3,19.10845,R,ugm-3
02-01-2023,03:00,8.16343,R,ugm-3,8.47882,R,ugm-3,20.99591,R,ugm-3
02-01-2023,04:00,7.27107,R,ugm-3,7.54204,R,ugm-3,18.69086,R,ugm-3
02-01-2023,05:00,8.59309,R,ugm-3,8.32112,R,ugm-3,21.49700,R,ugm-3
02-01-2023,06:00,7.10582,R,ugm-3,9.14838,R,ugm-3,20.04382,R,ugm-3
02-01-2023,07:00,9.51850,R,ugm-3,15.07004,R,ugm-3,29.66486,R,ugm-3
02-01-2023,08:00,11.13796,R,ugm-3,17.79828,R,ugm-3,34.87625,R,ugm-3
02-01-2023,09:00,9.88205,R,ugm-3,20.12487,R,ugm-3,35.27713,R,ugm-3
02-01-2023,10:00,22.96998,R,ugm-3,27.51702,R,ugm-3,62.73717,R,ugm-3
02-01-2023,11:00,17.71498,R,ugm-3,20.74215,R,ugm-3,47.90474,R,ugm-3
02-01-2023,12:00,15.99636,R,ugm-3,18.21604,R,ugm-3,42.74345,R,ugm-3
02-01-2023,13:00,14.24469,R,ugm-3,21.30277,R,ugm-3,43.14433,R,ugm-3
02-01-2023,14:00,23.66404,R,ugm-3,25.80139,R,ugm-3,62.08574,R,ugm-3
02-01-2023,15:00,18.54124,R,ugm-3,26.59080,R,ugm-3,55.02029,R,ugm-3
02-01-2023,16:00,34.20709,R,ugm-3,39.20024,R,ugm-3,91.65038,R,ugm-3
02-01-2023,17:00,47.79078,R,ugm-3,43.22655,R,ugm-3,116.50472,R,ugm-3
02-01-2023,18:00,40.61886,R,ugm-3,42.24716,R,ugm-3,104.52854,R,ugm-3
02-01-2023,19:00,45.70861,R,ugm-3,46.16862,R,ugm-3,116.25417,R,ugm-3
02-01-2023,20:00,35.26470,R,ugm-3,39.78341,R,ugm-3,93.85520,R,ugm-3
02-01-2023,21:00,24.09369,R,ugm-3,34.11221,R,ugm-3,71.05535,R,ugm-3
02-01-2023,22:00,21.54882,R,ugm-3,33.55455,R,ugm-3,66.59560,R,ugm-3
02-01-2023,23:00,27.69618,R,ugm-3,38.00907,R,ugm-3,80.47595,R,ugm-3
02-01-2023,24:00,33.18253,R,ugm-3,38.16551,R,ugm-3,89.04468,R,ugm-3
03-01-2023,01:00,23.45770,R,ugm-3,37.56265,R,ugm-3,73.53062,R,ugm-3
03-01-2023,02:00,9.32123,R,ugm-3,33.52264,R,ugm-3,47.81499,R,ugm-3
03-01-2023,03:00,7.65357,R,ugm-3,23.27209,R,ugm-3,35.00740,R,ugm-3
03-01-2023,04:00,7.71984,R,ugm-3,16.28955,R,ugm-3,28.12647,R,ugm-3
03-01-2023,05:00,7.15659,R,ugm-3,14.94325,R,ugm-3,25.91653,R,ugm-3
03-01-2023,06:00,8.18369,R,ugm-3,14.32267,R,ugm-3,26.87082,R,ugm-3
03-01-2023,07:00,14.77702,R,ugm-3,21.23959,R,ugm-3,43.89738,R,ugm-3
03-01-2023,08:00,21.20470,R,ugm-3,23.23726,R,ugm-3,55.75067,R,ugm-3
03-01-2023,09:00,33.49679,R,ugm-3,30.60752,R,ugm-3,81.96856,R,ugm-3
03-01-2023,10:00,28.49381,R,ugm-3,29.38868,R,ugm-3,73.07859,R,ugm-3
03-01-2023,11:00,18.05713,R,ugm-3,26.45624,R,ugm-3,54.14345,R,ugm-3
03-01-2023,12:00,15.67160,R,ugm-3,23.43397,R,ugm-3,47.46341,R,ugm-3
03-01-2023,13:00,22.49686,R,ugm-3,24.26952,R,ugm-3,58.76422,R,ugm-3
03-01-2023,14:00,17.19568,R,ugm-3,22.75452,R,ugm-3,49.12086,R,ugm-3
03-01-2023,15:00,20.74084,R,ugm-3,19.77974,R,ugm-3,51.58193,R,ugm-3
03-01-2023,16:00,23.82215,R,ugm-3,25.95415,R,ugm-3,62.48094,R,ugm-3
03-01-2023,17:00,22.06614,R,ugm-3,20.71098,R,ugm-3,54.54525,R,ugm-3
03-01-2023,18:00,9.40958,R,ugm-3,15.30586,R,ugm-3,29.73369,R,ugm-3
03-01-2023,19:00,12.85535,R,ugm-3,11.93102,R,ugm-3,31.64227,R,ugm-3
03-01-2023,20:00,9.24392,R,ugm-3,10.58752,R,ugm-3,24.76133,R,ugm-3
03-01-2023,21:00,7.52104,R,ugm-3,9.31162,R,ugm-3,20.84372,R,ugm-3
03-01-2023,22:00,8.31622,R,ugm-3,8.29327,R,ugm-3,21.04462,R,ugm-3
03-01-2023,23:00,7.28912,R,ugm-3,5.74962,R,ugm-3,16.92611,R,ugm-3
03-01-2023,24:00,6.56020,R,ugm-3,4.75778,R,ugm-3,14.81662,R,ugm-3
04-01-2023,01:00,6.90858,R,ugm-3,2.96579,R,ugm-3,13.55881,R,ugm-3
04-01-2023,02:00,6.55430,R,ugm-3,2.30081,R,ugm-3,12.35060,R,ugm-3
04-01-2023,03:00,6.44358,R,ugm-3,2.05106,R,ugm-3,11.93108,R,ugm-3
04-01-2023,04:00,6.47680,R,ugm-3,2.15116,R,ugm-3,12.08211,R,ugm-3
04-01-2023,05:00,6.04501,R,ugm-3,2.10843,R,ugm-3,11.37732,R,ugm-3
04-01-2023,06:00,6.94180,R,ugm-3,4.00561,R,ugm-3,14.64955,R,ugm-3
04-01-2023,07:00,9.59895,R,ugm-3,10.70459,R,ugm-3,25.42277,R,ugm-3
04-01-2023,08:00,12.12324,R,ugm-3,10.05596,R,ugm-3,28.64466,R,ugm-3
04-01-2023,09:00,9.36645,R,ugm-3,11.31279,R,ugm-3,25.67448,R,ugm-3
04-01-2023,10:00,10.32966,R,ugm-3,10.84272,R,ugm-3,26.68132,R,ugm-3
04-01-2023,11:00,,,,,,,,,
04-01-2023,12:00,10.23002,R,ugm-3,12.03591,R,ugm-3,27.72172,R,ugm-3
04-01-2023,13:00,9.36645,R,ugm-3,16.14563,R,ugm-3,30.50732,R,ugm-3
04-01-2023,14:00,9.99752,R,ugm-3,14.72492,R,ugm-3,30.05424,R,ugm-3
04-01-2023,15:00,12.15645,R,ugm-3,16.29779,R,ugm-3,34.93742,R,ugm-3
04-01-2023,16:00,12.95360,R,ugm-3,19.85802,R,ugm-3,39.71992,R,ugm-3
04-01-2023,17:00,16.00932,R,ugm-3,22.22054,R,ugm-3,46.76782,R,ugm-3
04-01-2023,18:00,18.23468,R,ugm-3,25.15148,R,ugm-3,53.11092,R,ugm-3
04-01-2023,19:00,15.34503,R,ugm-3,19.21173,R,ugm-3,42.74045,R,ugm-3
04-01-2023,20:00,11.32609,R,ugm-3,16.86620,R,ugm-3,34.23263,R,ugm-3
04-01-2023,21:00,11.39252,R,ugm-3,16.46229,R,ugm-3,33.93058,R,ugm-3
04-01-2023,22:00,9.86466,R,ugm-3,8.48485,R,ugm-3,23.61045,R,ugm-3
04-01-2023,23:00,6.87537,R,ugm-3,7.17834,R,ugm-3,17.72042,R,ugm-3
04-01-2023,24:00,7.97144,R,ugm-3,6.10182,R,ugm-3,18.32453,R,ugm-3
05-01-2023,01:00,,,,,,,,,
05-01-2023,02:00,,,,,,,,,
05-01-2023,03:00,7.45838,R,ugm-3,12.32987,R,ugm-3,23.76590,R,ugm-3
05-01-2023,04:00,8.75694,R,ugm-3,12.96261,R,ugm-3,26.38974,R,ugm-3
05-01-2023,05:00,8.42398,R,ugm-3,9.53740,R,ugm-3,22.45398,R,ugm-3
05-01-2023,06:00,10.12209,R,ugm-3,10.06208,R,ugm-3,25.58240,R,ugm-3
05-01-2023,07:00,13.68480,R,ugm-3,18.32401,R,ugm-3,39.30708,R,ugm-3
05-01-2023,08:00,21.87571,R,ugm-3,25.64540,R,ugm-3,59.18768,R,ugm-3
05-01-2023,09:00,24.87238,R,ugm-3,30.08262,R,ugm-3,68.21973,R,ugm-3
05-01-2023,10:00,30.03331,R,ugm-3,25.55001,R,ugm-3,71.60045,R,ugm-3
05-01-2023,11:00,22.47504,R,ugm-3,23.51543,R,ugm-3,57.97668,R,ugm-3
05-01-2023,12:00,17.18092,R,ugm-3,17.95875,R,ugm-3,44.30246,R,ugm-3
05-01-2023,13:00,20.77693,R,ugm-3,22.83938,R,ugm-3,54.69689,R,ugm-3
05-01-2023,14:00,25.67149,R,ugm-3,26.13258,R,ugm-3,65.49498,R,ugm-3
05-01-2023,15:00,21.37626,R,ugm-3,21.86995,R,ugm-3,54.64643,R,ugm-3
05-01-2023,16:00,35.26084,R,ugm-3,33.68126,R,ugm-3,87.74713,R,ugm-3
05-01-2023,17:00,28.00223,R,ugm-3,25.23311,R,ugm-3,68.16927,R,ugm-3
05-01-2023,18:00,19.31189,R,ugm-3,22.00778,R,ugm-3,51.61892,R,ugm-3
05-01-2023,19:00,24.40623,R,ugm-3,23.83411,R,ugm-3,61.25648,R,ugm-3
05-01-2023,20:00,13.45173,R,ugm-3,17.21809,R,ugm-3,37.84379,R,ugm-3
05-01-2023,21:00,9.92231,R,ugm-3,10.67115,R,ugm-3,25.88515,R,ugm-3
05-01-2023,22:00,8.72365,R,ugm-3,7.86691,R,ugm-3,21.24298,R,ugm-3
05-01-2023,23:00,7.95783,R,ugm-3,7.83014,R,ugm-3,20.03198,R,ugm-3
05-01-2023,24:00,8.02442,R,ugm-3,5.50787,R,ugm-3,17.81181,R,ugm-3
06-01-2023,01:00,7.20973,R,ugm-3,3.84791,R,ugm-3,14.90267,R,ugm-3
06-01-2023,02:00,7.47675,R,ugm-3,4.44996,R,ugm-3,15.91416,R,ugm-3
06-01-2023,03:00,6.87594,R,ugm-3,3.31449,R,ugm-3,13.85746,R,ugm-3
06-01-2023,04:00,6.90932,R,ugm-3,3.61733,R,ugm-3,14.21148,R,ugm-3
06-01-2023,05:00,7.44338,R,ugm-3,5.52950,R,ugm-3,16.94251,R,ugm-3
06-01-2023,06:00,8.64500,R,ugm-3,9.75599,R,ugm-3,23.01147,R,ugm-3
06-01-2023,07:00,17.52364,R,ugm-3,20.56982,R,ugm-3,47.43903,R,ugm-3
06-01-2023,08:00,21.12850,R,ugm-3,26.32059,R,ugm-3,58.71718,R,ugm-3
06-01-2023,09:00,24.33283,R,ugm-3,27.27402,R,ugm-3,64.58384,R,ugm-3
06-01-2023,10:00,27.13661,R,ugm-3,28.58874,R,ugm-3,70.19762,R,ugm-3
06-01-2023,11:00,21.12850,R,ugm-3,24.65163,R,ugm-3,57.04821,R,ugm-3
06-01-2023,12:00,28.77215,R,ugm-3,25.72692,R,ugm-3,69.84360,R,ugm-3
06-01-2023,13:00,33.41174,R,ugm-3,32.87503,R,ugm-3,84.10566,R,ugm-3
06-01-2023,14:00,33.64539,R,ugm-3,32.31448,R,ugm-3,83.90336,R,ugm-3
06-01-2023,15:00,32.37701,R,ugm-3,38.65929,R,ugm-3,88.30335,R,ugm-3
06-01-2023,16:00,35.34769,R,ugm-3,34.81237,R,ugm-3,89.01140,R,ugm-3
06-01-2023,17:00,32.21012,R,ugm-3,38.66232,R,ugm-3,88.05048,R,ugm-3
06-01-2023,18:00,26.16864,R,ugm-3,28.55570,R,ugm-3,68.68038,R,ugm-3
06-01-2023,19:00,31.20877,R,ugm-3,36.40460,R,ugm-3,84.25738,R,ugm-3
06-01-2023,20:00,14.58634,R,ugm-3,24.71959,R,ugm-3,47.08501,R,ugm-3
06-01-2023,21:00,11.54891,R,ugm-3,13.90107,R,ugm-3,31.60916,R,ugm-3
06-01-2023,22:00,10.11364,R,ugm-3,12.40984,R,ugm-3,27.91721,R,ugm-3
06-01-2023,23:00,9.31256,R,ugm-3,10.40137,R,ugm-3,24.68043,R,ugm-3
06-01-2023,24:00,7.91067,R,ugm-3,7.24057,R,ugm-3,19.37010,R,ugm-3
07-01-2023,01:00,7.58435,R,ugm-3,5.13263,R,ugm-3,16.76180,R,ugm-3
07-01-2023,02:00,7.76281,R,ugm-3,5.26453,R,ugm-3,17.16733,R,ugm-3
07-01-2023,03:00,6.75900,R,ugm-3,3.57636,R,ugm-3,13.94001,R,ugm-3
07-01-2023,04:00,7.02668,R,ugm-3,3.16592,R,ugm-3,13.94001,R,ugm-3
07-01-2023,05:00,7.09360,R,ugm-3,3.06331,R,ugm-3,13.94001,R,ugm-3
07-01-2023,06:00,6.65861,R,ugm-3,3.62889,R,ugm-3,13.83862,R,ugm-3
07-01-2023,07:00,10.20541,R,ugm-3,4.57760,R,ugm-3,20.22568,R,ugm-3
07-01-2023,08:00,9.56967,R,ugm-3,6.11000,R,ugm-3,20.78328,R,ugm-3
07-01-2023,09:00,11.64421,R,ugm-3,9.11337,R,ugm-3,26.96758,R,ugm-3
07-01-2023,10:00,13.48453,R,ugm-3,13.74315,R,ugm-3,34.41914,R,ugm-3
07-01-2023,11:00,16.02752,R,ugm-3,15.77480,R,ugm-3,40.34998,R,ugm-3
07-01-2023,12:00,18.30282,R,ugm-3,17.20307,R,ugm-3,45.26700,R,ugm-3
07-01-2023,13:00,20.54467,R,ugm-3,17.51675,R,ugm-3,49.01813,R,ugm-3
07-01-2023,14:00,21.21388,R,ugm-3,20.24177,R,ugm-3,52.76926,R,ugm-3
07-01-2023,15:00,24.25877,R,ugm-3,19.01998,R,ugm-3,56.21624,R,ugm-3
07-01-2023,16:00,29.47859,R,ugm-3,24.04394,R,ugm-3,69.24381,R,ugm-3
07-01-2023,17:00,38.24520,R,ugm-3,23.88301,R,ugm-3,82.52484,R,ugm-3
07-01-2023,18:00,20.24352,R,ugm-3,17.67435,R,ugm-3,48.71399,R,ugm-3
07-01-2023,19:00,24.02455,R,ugm-3,15.62799,R,ugm-3,52.46512,R,ugm-3
07-01-2023,20:00,13.41761,R,ugm-3,13.74438,R,ugm-3,34.31776,R,ugm-3
07-01-2023,21:00,12.41380,R,ugm-3,12.09001,R,ugm-3,31.12423,R,ugm-3
07-01-2023,22:00,13.18339,R,ugm-3,14.81319,R,ugm-3,35.02743,R,ugm-3
07-01-2023,23:00,10.94154,R,ugm-3,11.25529,R,ugm-3,28.03209,R,ugm-3
07-01-2023,24:00,10.57348,R,ugm-3,10.29892,R,ugm-3,26.51136,R,ugm-3
08-01-2023,01:00,8.72102,R,ugm-3,7.76376,R,ugm-3,21.13580,R,ugm-3
08-01-2023,02:00,8.49740,R,ugm-3,5.53240,R,ugm-3,18.56157,R,ugm-3
08-01-2023,03:00,9.49249,R,ugm-3,7.54618,R,ugm-3,22.10114,R,ugm-3
08-01-2023,04:00,8.82165,R,ugm-3,4.66264,R,ugm-3,18.18898,R,ugm-3
08-01-2023,05:00,8.62039,R,ugm-3,4.46316,R,ugm-3,17.68091,R,ugm-3
08-01-2023,06:00,7.64766,R,ugm-3,3.51591,R,ugm-3,15.24216,R,ugm-3
08-01-2023,07:00,8.15080,R,ugm-3,3.91301,R,ugm-3,16.41073,R,ugm-3
08-01-2023,08:00,9.89500,R,ugm-3,4.84592,R,ugm-3,20.01804,R,ugm-3
08-01-2023,09:00,9.86146,R,ugm-3,8.19982,R,ugm-3,23.32051,R,ugm-3
08-01-2023,10:00,13.41695,R,ugm-3,10.52164,R,ugm-3,31.09401,R,ugm-3
08-01-2023,11:00,11.57212,R,ugm-3,10.14949,R,ugm-3,27.89316,R,ugm-3
08-01-2023,12:00,12.81319,R,ugm-3,11.24417,R,ugm-3,30.89078,R,ugm-3
08-01-2023,13:00,15.66429,R,ugm-3,14.39200,R,ugm-3,38.41025,R,ugm-3
08-01-2023,14:00,15.59721,R,ugm-3,13.07227,R,ugm-3,36.98765,R,ugm-3
08-01-2023,15:00,17.77746,R,ugm-3,16.79146,R,ugm-3,44.04985,R,ugm-3
08-01-2023,16:00,19.18624,R,ugm-3,14.93620,R,ugm-3,44.35469,R,ugm-3
08-01-2023,17:00,19.38750,R,ugm-3,26.46569,R,ugm-3,56.19277,R,ugm-3
08-01-2023,18:00,15.42949,R,ugm-3,15.61574,R,ugm-3,39.27397,R,ugm-3
08-01-2023,19:00,,,,,,,,,
08-01-2023,20:00,,,,,,,,,
08-01-2023,21:00,,,,,,,,,
08-01-2023,22:00,,,,,,,,,
08-01-2023,23:00,,,,,,,,,
08-01-2023,24:00,,,,,,,,,
09-01-2023,01:00,,,,,,,,,
09-01-2023,02:00,,,,,,,,,
09-01-2023,03:00,,,,,,,,,
09-01-2023,04:00,,,,,,,,,
09-01-2023,05:00,,,,,,,,,
09-01-2023,06:00,,,,,,,,,
09-01-2023,07:00,,,,,,,,,
09-01-2023,08:00,,,,,,,,,
09-01-2023,09:00,,,,,,,,,
09-01-2023,10:00,,,,,,,,,
09-01-2023,11:00,,,,,,,,,
09-01-2023,12:00,,,,,,,,,
09-01-2023,13:00,,,,,,,,,
09-01-2023,14:00,,,,,,,,,
09-01-2023,15:00,,,,,,,,,
09-01-2023,16:00,20.17463,R,ugm-3,26.25307,R,ugm-3,57.18707,R,ugm-3
09-01-2023,17:00,30.76632,R,ugm-3,35.67815,R,ugm-3,82.85251,R,ugm-3
09-01-2023,18:00,17.95542,R,ugm-3,25.07269,R,ugm-3,52.60396,R,ugm-3
09-01-2023,19:00,28.74885,R,ugm-3,27.31377,R,ugm-3,71.39472,R,ugm-3
09-01-2023,20:00,10.59168,R,ugm-3,17.57284,R,ugm-3,33.81319,R,ugm-3
09-01-2023,21:00,9.98644,R,ugm-3,17.99162,R,ugm-3,33.30396,R,ugm-3
09-01-2023,22:00,9.91919,R,ugm-3,13.71532,R,ugm-3,28.92454,R,ugm-3
09-01-2023,23:00,10.86068,R,ugm-3,13.69759,R,ugm-3,30.35040,R,ugm-3
09-01-2023,24:00,8.27160,R,ugm-3,9.46877,R,ugm-3,22.15172,R,ugm-3
10-01-2023,01:00,6.38174,R,ugm-3,7.84053,R,ugm-3,17.62573,R,ugm-3
10-01-2023,02:00,5.34808,R,ugm-3,6.56723,R,ugm-3,14.76750,R,ugm-3
10-01-2023,03:00,5.25820,R,ugm-3,6.79011,R,ugm-3,14.85257,R,ugm-3
10-01-2023,04:00,5.46044,R,ugm-3,7.70497,R,ugm-3,16.07752,R,ugm-3
10-01-2023,05:00,4.92113,R,ugm-3,7.71526,R,ugm-3,15.26089,R,ugm-3
10-01-2023,06:00,8.29177,R,ugm-3,11.01961,R,ugm-3,23.73349,R,ugm-3
10-01-2023,07:00,16.78578,R,ugm-3,20.40210,R,ugm-3,46.13994,R,ugm-3
10-01-2023,08:00,20.99908,R,ugm-3,25.11950,R,ugm-3,57.31765,R,ugm-3
10-01-2023,09:00,23.15629,R,ugm-3,35.38840,R,ugm-3,70.89422,R,ugm-3
10-01-2023,10:00,26.72917,R,ugm-3,34.19740,R,ugm-3,75.18156,R,ugm-3
10-01-2023,11:00,18.06663,R,ugm-3,25.68581,R,ugm-3,53.38759,R,ugm-3
10-01-2023,12:00,21.84174,R,ugm-3,22.65353,R,ugm-3,56.14373,R,ugm-3
10-01-2023,13:00,16.48243,R,ugm-3,19.48917,R,ugm-3,44.76187,R,ugm-3
10-01-2023,14:00,19.48230,R,ugm-3,19.48301,R,ugm-3,49.35544,R,ugm-3
10-01-2023,15:00,14.66228,R,ugm-3,18.70723,R,ugm-3,41.18908,R,ugm-3
10-01-2023,16:00,12.94326,R,ugm-3,16.44322,R,ugm-3,36.28927,R,ugm-3
10-01-2023,17:00,14.46004,R,ugm-3,18.35381,R,ugm-3,40.52557,R,ugm-3
10-01-2023,18:00,13.01067,R,ugm-3,15.98258,R,ugm-3,35.93199,R,ugm-3
10-01-2023,19:00,8.99961,R,ugm-3,13.20083,R,ugm-3,27.00003,R,ugm-3
10-01-2023,20:00,8.12324,R,ugm-3,11.83946,R,ugm-3,24.29492,R,ugm-3
10-01-2023,21:00,7.48282,R,ugm-3,10.16736,R,ugm-3,21.64086,R,ugm-3
10-01-2023,22:00,7.07834,R,ugm-3,8.89908,R,ugm-3,19.75239,R,ugm-3
10-01-2023,23:00,6.26939,R,ugm-3,7.99579,R,ugm-3,17.60872,R,ugm-3
10-01-2023,24:00,5.93233,R,ugm-3,6.93038,R,ugm-3,16.02648,R,ugm-3
11-01-2023,01:00,6.17202,R,ugm-3,6.90631,R,ugm-3,16.36993,R,ugm-3
11-01-2023,02:00,5.36109,R,ugm-3,4.67109,R,ugm-3,12.89132,R,ugm-3
11-01-2023,03:00,5.40615,R,ugm-3,4.03930,R,ugm-3,12.32860,R,ugm-3
11-01-2023,04:00,6.11570,R,ugm-3,4.74179,R,ugm-3,14.11907,R,ugm-3
11-01-2023,05:00,5.81161,R,ugm-3,4.69650,R,ugm-3,13.60750,R,ugm-3
11-01-2023,06:00,6.62253,R,ugm-3,7.23865,R,ugm-3,17.39305,R,ugm-3
11-01-2023,07:00,15.50888,R,ugm-3,25.73909,R,ugm-3,49.51904,R,ugm-3
11-01-2023,08:00,16.21843,R,ugm-3,21.88869,R,ugm-3,46.75661,R,ugm-3
11-01-2023,09:00,16.01570,R,ugm-3,20.86949,R,ugm-3,45.42656,R,ugm-3
11-01-2023,10:00,17.56997,R,ugm-3,20.63487,R,ugm-3,47.57511,R,ugm-3
11-01-2023,11:00,19.66485,R,ugm-3,20.49212,R,ugm-3,50.64447,R,ugm-3
11-01-2023,12:00,12.94096,R,ugm-3,14.73895,R,ugm-3,34.58148,R,ugm-3
11-01-2023,13:00,14.93447,R,ugm-3,16.03053,R,ugm-3,38.92974,R,ugm-3
11-01-2023,14:00,,,,,,,,,
11-01-2023,15:00,23.34779,R,ugm-3,29.88491,R,ugm-3,65.68434,R,ugm-3
11-01-2023,16:00,14.42765,R,ugm-3,15.57991,R,ugm-3,37.70200,R,ugm-3
11-01-2023,17:00,15.37372,R,ugm-3,15.91974,R,ugm-3,39.49246,R,ugm-3
11-01-2023,18:00,15.94813,R,ugm-3,18.46646,R,ugm-3,42.91991,R,ugm-3
11-01-2023,19:00,15.03584,R,ugm-3,18.73985,R,ugm-3,41.79448,R,ugm-3
11-01-2023,20:00,10.50819,R,ugm-3,14.83706,R,ugm-3,30.94940,R,ugm-3
11-01-2023,21:00,9.29181,R,ugm-3,13.53048,R,ugm-3,27.77773,R,ugm-3
11-01-2023,22:00,7.56860,R,ugm-3,8.90854,R,ugm-3,20.51357,R,ugm-3
11-01-2023,23:00,6.52116,R,ugm-3,5.14321,R,ugm-3,15.14219,R,ugm-3
11-01-2023,24:00,7.29830,R,ugm-3,4.77012,R,ugm-3,15.96068,R,ugm-3
12-01-2023,01:00,6.31675,R,ugm-3,3.50006,R,ugm-3,13.18561,R,ugm-3
12-01-2023,02:00,7.08378,R,ugm-3,3.82698,R,ugm-3,14.68863,R,ugm-3
12-01-2023,03:00,4.73756,R,ugm-3,2.11265,R,ugm-3,9.37681,R,ugm-3
12-01-2023,04:00,4.73756,R,ugm-3,2.01018,R,ugm-3,9.27433,R,ugm-3
12-01-2023,05:00,4.16228,R,ugm-3,2.94349,R,ugm-3,9.32557,R,ugm-3
12-01-2023,06:00,5.00828,R,ugm-3,5.89919,R,ugm-3,13.57844,R,ugm-3
12-01-2023,07:00,11.94542,R,ugm-3,14.11849,R,ugm-3,32.43454,R,ugm-3
12-01-2023,08:00,14.07732,R,ugm-3,20.63634,R,ugm-3,42.22126,R,ugm-3
12-01-2023,09:00,13.16365,R,ugm-3,17.98938,R,ugm-3,38.17335,R,ugm-3
12-01-2023,10:00,15.76931,R,ugm-3,18.86183,R,ugm-3,43.04109,R,ugm-3
12-01-2023,11:00,17.69817,R,ugm-3,17.49270,R,ugm-3,44.62952,R,ugm-3
12-01-2023,12:00,13.23133,R,ugm-3,12.60794,R,ugm-3,32.89569,R,ugm-3
12-01-2023,13:00,19.45783,R,ugm-3,19.55985,R,ugm-3,49.39478,R,ugm-3
12-01-2023,14:00,12.75757,R,ugm-3,13.69303,R,ugm-3,33.25437,R,ugm-3
12-01-2023,15:00,14.78795,R,ugm-3,17.24095,R,ugm-3,39.91549,R,ugm-3
12-01-2023,16:00,11.81006,R,ugm-3,16.01694,R,ugm-3,34.12544,R,ugm-3
12-01-2023,17:00,10.15191,R,ugm-3,17.22717,R,ugm-3,32.79322,R,ugm-3
12-01-2023,18:00,12.24998,R,ugm-3,14.98373,R,ugm-3,33.76676,R,ugm-3
12-01-2023,19:00,11.23478,R,ugm-3,16.02794,R,ugm-3,33.25437,R,ugm-3
12-01-2023,20:00,9.61048,R,ugm-3,11.54995,R,ugm-3,26.28581,R,ugm-3
12-01-2023,21:00,6.63258,R,ugm-3,9.09619,R,ugm-3,19.26601,R,ugm-3
12-01-2023,22:00,6.12499,R,ugm-3,7.56872,R,ugm-3,16.96024,R,ugm-3
12-01-2023,23:00,6.26035,R,ugm-3,5.46532,R,ugm-3,15.06438,R,ugm-3
12-01-2023,24:00,5.78659,R,ugm-3,3.73224,R,ugm-3,12.60489,R,ugm-3
13-01-2023,01:00,4.56399,R,ugm-3,3.47182,R,ugm-3,10.46984,R,ugm-3
13-01-2023,02:00,3.84098,R,ugm-3,2.39065,R,ugm-3,8.28007,R,ugm-3
13-01-2023,03:00,3.89747,R,ugm-3,2.54355,R,ugm-3,8.51958,R,ugm-3
13-01-2023,04:00,3.66023,R,ugm-3,2.24011,R,ugm-3,7.85238,R,ugm-3
13-01-2023,05:00,4.13470,R,ugm-3,2.48773,R,ugm-3,8.82752,R,ugm-3
13-01-2023,06:00,4.60918,R,ugm-3,5.91735,R,ugm-3,12.98466,R,ugm-3
13-01-2023,07:00,9.08279,R,ugm-3,12.81241,R,ugm-3,26.73916,R,ugm-3
13-01-2023,08:00,14.36979,R,ugm-3,21.74495,R,ugm-3,43.77832,R,ugm-3
13-01-2023,09:00,10.64178,R,ugm-3,18.01776,R,ugm-3,34.33493,R,ugm-3
13-01-2023,10:00,10.77734,R,ugm-3,17.91255,R,ugm-3,34.43758,R,ugm-3
13-01-2023,11:00,14.26812,R,ugm-3,15.69079,R,ugm-3,37.56826,R,ugm-3
13-01-2023,12:00,12.30244,R,ugm-3,13.88045,R,ugm-3,32.74392,R,ugm-3
13-01-2023,13:00,10.57400,R,ugm-3,13.55397,R,ugm-3,29.76720,R,ugm-3
13-01-2023,14:00,11.62462,R,ugm-3,13.22611,R,ugm-3,31.05027,R,ugm-3
13-01-2023,15:00,14.53925,R,ugm-3,14.60787,R,ugm-3,36.90107,R,ugm-3
13-01-2023,16:00,20.74130,R,ugm-3,14.69554,R,ugm-3,46.49843,R,ugm-3
13-01-2023,17:00,11.38738,R,ugm-3,16.66923,R,ugm-3,34.12964,R,ugm-3
13-01-2023,18:00,14.60703,R,ugm-3,21.53516,R,ugm-3,43.93229,R,ugm-3
13-01-2023,19:00,17.79278,R,ugm-3,22.91178,R,ugm-3,50.19366,R,ugm-3
13-01-2023,20:00,18.34634,R,ugm-3,25.79246,R,ugm-3,53.92312,R,ugm-3
13-01-2023,21:00,16.13212,R,ugm-3,24.99618,R,ugm-3,49.73176,R,ugm-3
13-01-2023,22:00,15.01372,R,ugm-3,24.35020,R,ugm-3,47.37091,R,ugm-3
13-01-2023,23:00,16.16602,R,ugm-3,18.83681,R,ugm-3,43.62435,R,ugm-3
13-01-2023,24:00,8.87945,R,ugm-3,15.17711,R,ugm-3,28.79207,R,ugm-3
14-01-2023,01:00,7.37680,R,ugm-3,8.77173,R,ugm-3,20.08266,R,ugm-3
14-01-2023,02:00,5.83808,R,ugm-3,8.04670,R,ugm-3,16.99829,R,ugm-3
14-01-2023,03:00,7.12789,R,ugm-3,7.73115,R,ugm-3,18.66043,R,ugm-3
14-01-2023,04:00,5.32895,R,ugm-3,7.35372,R,ugm-3,15.52465,R,ugm-3
14-01-2023,05:00,5.12529,R,ugm-3,5.35271,R,ugm-3,13.21138,R,ugm-3
14-01-2023,06:00,5.87202,R,ugm-3,5.44148,R,ugm-3,14.44512,R,ugm-3
14-01-2023,07:00,6.61875,R,ugm-3,6.60979,R,ugm-3,16.75840,R,ugm-3
14-01-2023,08:00,8.38375,R,ugm-3,11.15175,R,ugm-3,24.00666,R,ugm-3
14-01-2023,09:00,9.33414,R,ugm-3,9.23186,R,ugm-3,23.54401,R,ugm-3
14-01-2023,10:00,11.26885,R,ugm-3,12.38267,R,ugm-3,29.66134,R,ugm-3
14-01-2023,11:00,21.51943,R,ugm-3,15.37717,R,ugm-3,48.37317,R,ugm-3
14-01-2023,12:00,31.60030,R,ugm-3,23.15562,R,ugm-3,71.60874,R,ugm-3
14-01-2023,13:00,34.58723,R,ugm-3,37.64741,R,ugm-3,90.68042,R,ugm-3
14-01-2023,14:00,48.29993,R,ugm-3,39.34307,R,ugm-3,113.40193,R,ugm-3
14-01-2023,15:00,31.26088,R,ugm-3,37.09306,R,ugm-3,85.02574,R,ugm-3
14-01-2023,16:00,34.62117,R,ugm-3,33.79131,R,ugm-3,86.87636,R,ugm-3
14-01-2023,17:00,34.28175,R,ugm-3,49.32234,R,ugm-3,101.88695,R,ugm-3
14-01-2023,18:00,34.14598,R,ugm-3,42.84772,R,ugm-3,95.20415,R,ugm-3
14-01-2023,19:00,25.21915,R,ugm-3,36.38413,R,ugm-3,75.05295,R,ugm-3
14-01-2023,20:00,21.58732,R,ugm-3,21.49322,R,ugm-3,54.59331,R,ugm-3
14-01-2023,21:00,15.61347,R,ugm-3,15.23115,R,ugm-3,39.17147,R,ugm-3
14-01-2023,22:00,12.21924,R,ugm-3,12.77606,R,ugm-3,31.51196,R,ugm-3
14-01-2023,23:00,15.68135,R,ugm-3,15.22988,R,ugm-3,39.27428,R,ugm-3
14-01-2023,24:00,9.70750,R,ugm-3,9.68750,R,ugm-3,24.57213,R,ugm-3
15-01-2023,01:00,26.15243,R,ugm-3,10.77179,R,ugm-3,50.87162,R,ugm-3
15-01-2023,02:00,6.43613,R,ugm-3,6.05883,R,ugm-3,15.92742,R,ugm-3
15-01-2023,03:00,6.35681,R,ugm-3,5.18498,R,ugm-3,14.93196,R,ugm-3
15-01-2023,04:00,5.64294,R,ugm-3,5.30126,R,ugm-3,13.95365,R,ugm-3
15-01-2023,05:00,5.06505,R,ugm-3,4.84862,R,ugm-3,12.61493,R,ugm-3
15-01-2023,06:00,4.35119,R,ugm-3,3.05979,R,ugm-3,9.73152,R,ugm-3
15-01-2023,07:00,5.54096,R,ugm-3,4.27337,R,ugm-3,12.76940,R,ugm-3
15-01-2023,08:00,4.58914,R,ugm-3,5.78430,R,ugm-3,12.82089,R,ugm-3
15-01-2023,09:00,16.35094,R,ugm-3,12.25880,R,ugm-3,37.32989,R,ugm-3
15-01-2023,10:00,15.53509,R,ugm-3,15.56933,R,ugm-3,39.38947,R,ugm-3
15-01-2023,11:00,8.29445,R,ugm-3,10.24634,R,ugm-3,22.96432,R,ugm-3
15-01-2023,12:00,13.73343,R,ugm-3,17.97141,R,ugm-3,39.02904,R,ugm-3
15-01-2023,13:00,11.89777,R,ugm-3,21.30094,R,ugm-3,39.54393,R,ugm-3
15-01-2023,14:00,19.20640,R,ugm-3,18.95072,R,ugm-3,48.40013,R,ugm-3
15-01-2023,15:00,29.60845,R,ugm-3,25.86247,R,ugm-3,71.26146,R,ugm-3
15-01-2023,16:00,28.89458,R,ugm-3,36.94602,R,ugm-3,81.25043,R,ugm-3
15-01-2023,17:00,50.54853,R,ugm-3,63.05967,R,ugm-3,140.56633,R,ugm-3
15-01-2023,18:00,30.28832,R,ugm-3,33.83068,R,ugm-3,80.27213,R,ugm-3
15-01-2023,19:00,24.81535,R,ugm-3,27.90837,R,ugm-3,65.95805,R,ugm-3
15-01-2023,20:00,15.56908,R,ugm-3,23.54957,R,ugm-3,47.42183,R,ugm-3
15-01-2023,21:00,16.92883,R,ugm-3,23.00934,R,ugm-3,48.96651,R,ugm-3
15-01-2023,22:00,10.60601,R,ugm-3,16.63946,R,ugm-3,32.90179,R,ugm-3
15-01-2023,23:00,10.60601,R,ugm-3,14.11648,R,ugm-3,30.37880,R,ugm-3
15-01-2023,24:00,13.29151,R,ugm-3,20.19369,R,ugm-3,40.57372,R,ugm-3
16-01-2023,01:00,15.07056,R,ugm-3,25.78321,R,ugm-3,48.89107,R,ugm-3
16-01-2023,02:00,8.12539,R,ugm-3,27.97437,R,ugm-3,40.43312,R,ugm-3
16-01-2023,03:00,6.06000,R,ugm-3,16.70086,R,ugm-3,25.99272,R,ugm-3
16-01-2023,04:00,4.63011,R,ugm-3,11.77626,R,ugm-3,18.87567,R,ugm-3
16-01-2023,05:00,4.22157,R,ugm-3,11.31965,R,ugm-3,17.79264,R,ugm-3
16-01-2023,06:00,4.83438,R,ugm-3,11.92721,R,ugm-3,19.33982,R,ugm-3
16-01-2023,07:00,10.82629,R,ugm-3,19.13992,R,ugm-3,35.74000,R,ugm-3
16-01-2023,08:00,19.09921,R,ugm-3,23.83500,R,ugm-3,53.12005,R,ugm-3